Moses Lake, WA
on Monday, February 4, 2013

Monday
Previous Day Next Day
Daily Summary
 ActualAverageRecord
Temperature
Mean Temperature °F 33°F  
Max Temperature 39°F 40°F 53°F (2005)
Min Temperature 30°F 26°F -12°F (1985)
Degree Days
Heating Degree Days 30 32  
Month to date heating degree days 123 129  
Since 1 July heating degree days 3477 3803  
Cooling Degree Days 0 0  
Month to date cooling degree days 0 0  
Year to date cooling degree days 0 0  
Moisture
Dew Point 29°F   
Average Humidity 88    
Maximum Humidity 100    
Minimum Humidity 76    
Precipitation
Precipitation 0.00 in 0.04 in 0.25 in (1986)
Month to date precipitation 0.00 0.15  
Year to date precipitation 0.28 1.29  
Wind
Wind Speed 3 mph   
Max Wind Speed 9 mph   
Max Gust Speed 10 mph   
Visibility 3 miles   
Events Fog   

Key: T is trace of precipitation, MM is missing value
Source: NWS Daily Summary
Time(PST)TemperatureDew PointHumidity Pressure Visibility Wind DirectionWind SpeedGust SpeedPrecipitationEvents Conditions
12:13 AM 33.8°F 30.2°F 87% 30.13 in 3.0 miles South 3.5 mph - N/A   Overcast
12:29 AM 33.8°F 30.2°F 87% 30.13 in 2.0 miles Calm Calm - N/A   Overcast
12:39 AM 33.8°F 30.2°F 87% 30.13 in 1.5 miles Calm Calm - N/A   Overcast
12:52 AM 33.1°F 30.9°F 92% 30.17 in 2.5 miles Calm Calm - N/A   Overcast
1:00 AM 33.8°F 30.2°F 87% 30.13 in 3.0 miles Calm Calm - N/A   Overcast
2:52 AM 33.8°F 30.2°F 87% 30.14 in 3.0 miles Calm Calm - N/A   Overcast
3:07 AM 33.8°F 30.2°F 87% 30.14 in 2.5 miles Calm Calm - N/A   Overcast
3:24 AM 33.8°F 30.2°F 87% 30.14 in 1.5 miles Calm Calm - N/A   Overcast
3:52 AM 32.0°F 30.0°F 92% 30.17 in 1.5 miles SE 4.6 mph - N/A   Overcast
4:14 AM 32.0°F 30.2°F 93% 30.12 in 0.8 miles SSE 3.5 mph - N/A   Mist
4:26 AM 32.0°F 30.2°F 93% 30.13 in 1.8 miles Calm Calm - N/A   Overcast
4:33 AM 32.0°F 30.2°F 93% 30.12 in 3.0 miles South 3.5 mph - N/A   Overcast
4:41 AM 32.0°F 30.2°F 93% 30.12 in 1.8 miles SE 3.5 mph - N/A   Overcast
4:52 AM 32.0°F 30.0°F 92% 30.16 in 0.8 miles South 3.5 mph - N/A   Mist
5:14 AM 30.2°F 28.4°F 93% 30.11 in 1.5 miles South 6.9 mph - N/A   Overcast
5:32 AM 32.0°F 30.2°F 93% 30.11 in 0.5 miles South 3.5 mph - N/A Fog Fog
5:52 AM 32.0°F 30.9°F 96% 30.16 in 0.5 miles Calm Calm - N/A Fog Fog
6:29 AM 30.2°F 28.4°F 93% 30.11 in 0.2 miles SSE 4.6 mph - N/A Fog Light Freezing Fog
6:52 AM 30.9°F 28.9°F 92% 30.14 in 0.2 miles SE 4.6 mph - N/A Fog Light Freezing Fog
6:59 AM 32.0°F 28.4°F 87% 30.10 in 0.2 miles SE 4.6 mph - N/A Fog Fog
7:52 AM 30.0°F 28.0°F 92% 30.17 in 0.2 miles Calm Calm - N/A Fog Light Freezing Fog
8:52 AM 30.9°F 30.0°F 96% 30.17 in 0.2 miles Calm Calm - N/A Fog Light Freezing Fog
9:52 AM 30.9°F 28.9°F 92% 30.17 in 0.2 miles NE 3.5 mph - N/A Fog Light Freezing Fog
10:30 AM 32.0°F 30.2°F 93% 30.14 in 0.5 miles East 4.6 mph - N/A Fog Fog
10:52 AM 32.0°F 30.9°F 96% 30.18 in 1.0 miles ENE 3.5 mph - N/A   Overcast
11:04 AM 32.0°F 30.2°F 93% 30.14 in 3.0 miles Calm Calm - N/A   Overcast
11:52 AM 33.1°F 30.0°F 89% 30.16 in 6.0 miles Calm Calm - N/A   Overcast
12:47 PM 35.6°F 30.2°F 81% 30.10 in 10.0 miles Calm Calm - N/A   Overcast
12:52 PM 36.0°F 30.0°F 79% 30.13 in 10.0 miles Calm Calm - N/A   Overcast
1:52 PM 37.0°F 30.0°F 76% 30.12 in 10.0 miles Calm Calm - N/A   Mostly Cloudy
1:59 PM 37.4°F 30.2°F 75% 30.08 in 10.0 miles Calm Calm - N/A   Scattered Clouds
2:52 PM 37.9°F 30.9°F 76% 30.10 in 10.0 miles North 3.5 mph - N/A   Clear
3:52 PM 37.0°F 30.9°F 79% 30.08 in 10.0 miles North 6.9 mph - N/A   Clear
4:52 PM 33.1°F 28.9°F 85% 30.07 in 10.0 miles NNW 4.6 mph - N/A   Clear
5:52 PM 30.9°F 27.0°F 85% 30.07 in 8.0 miles NNW 6.9 mph - N/A   Clear
6:52 PM 30.9°F 28.0°F 89% 30.08 in 7.0 miles North 4.6 mph - N/A   Clear
7:16 PM 30.2°F 26.6°F 86% 30.03 in 6.0 miles North 6.9 mph - N/A   Scattered Clouds
7:21 PM 30.2°F 26.6°F 86% 30.03 in 0.5 miles North 6.9 mph - N/A Fog Light Freezing Fog
7:52 PM 30.9°F 28.0°F 89% 30.06 in 0.8 miles North 5.8 mph - N/A   Mist
8:19 PM 30.2°F 28.4°F 93% 30.02 in 0.8 miles North 5.8 mph - N/A   Mostly Cloudy
8:49 PM 30.2°F 28.4°F 93% 30.00 in 0.8 miles North 4.6 mph - N/A   Overcast
8:52 PM 30.9°F 28.9°F 92% 30.04 in 0.8 miles North 4.6 mph - N/A   Overcast
8:56 PM 30.2°F 28.4°F 93% 30.00 in 3.0 miles North 4.6 mph - N/A   Overcast
9:04 PM 32.0°F 28.4°F 87% 29.98 in 0.5 miles NNE 6.9 mph - N/A Fog Fog
9:45 PM 32.0°F 28.4°F 87% 29.98 in 0.5 miles North 4.6 mph - N/A Fog Fog
9:52 PM 32.0°F 28.9°F 88% 30.02 in 4.0 miles NNW 5.8 mph - N/A   Overcast
10:02 PM 32.0°F 28.4°F 87% 29.99 in 4.0 miles NNW 9.2 mph - N/A   Overcast
10:52 PM 33.1°F 30.0°F 89% 30.00 in 6.0 miles NNE 4.6 mph - N/A   Overcast
11:52 PM 33.1°F 28.9°F 85% 29.98 in 6.0 miles NNE 5.8 mph - N/A   Overcast
Moon Phase
Feb. 04 Feb. 10 Feb. 17 Feb. 25 Mar. 04
Sunrise:07:18 AM (PST) Moon Rise:02:04 AM (PST)2/4
Sunset:05:04 PM (PST) Moon Set:11:26 AM (PST)2/4

Copyright © 2014 The Weather Underground, Inc.